WXM80 ListenWXM80 Stop

You find our weather info also at:

UK Metoffice

WeatherCloud

Weather Underground

Northeastern Weather Network

AWEKAS

Citizen Weather Observer Program (CWOP)

HAMweather, WeatherForYou, PWS Weather


Weather Underground History page Text

Daily Summary for February 7, 2017 Units:  English    Metric   Both
« Previous Day
Next Day »
Daily Weekly Monthly Yearly Custom
  High: Low: Average:
Temperature: 38.9 °F 33.3 °F 36.6 °F
Dew Point: 38.4 °F 31.0 °F 35.1 °F
Humidity: 98 % 85 % 94 %
Wind Speed: 11.4 mph 0.0 mph 4.5 mph
Wind Gust: 15.0 mph - -
Wind:- - ENE
Pressure: 30.00 in 29.59 in -
Precipitation: 0.00 in    
Historical Graphs
 
 
Tabular Data for February 7, 2017
Time Temperature Dew Point Pressure Wind Wind Speed Wind Gust Humidity Rainfall Rate (Hourly)
00:03 37.8 °F 34.0 °F 30.00 in Calm     86 % 0.00 in
00:08 37.7 °F 33.9 °F 29.99 in Calm     86 % 0.00 in
00:13 37.5 °F 33.7 °F 29.99 in Calm     86 % 0.00 in
00:18 37.4 °F 33.6 °F 29.99 in Calm     86 % 0.00 in
00:23 37.2 °F 33.1 °F 29.99 in Calm     85 % 0.00 in
00:28 37.0 °F 32.9 °F 29.99 in Calm     85 % 0.00 in
00:33 36.8 °F 33.0 °F 29.99 in Calm     86 % 0.00 in
00:38 36.6 °F 32.8 °F 29.99 in Calm     86 % 0.00 in
00:43 36.5 °F 32.7 °F 29.98 in Calm     86 % 0.00 in
00:48 36.3 °F 32.5 °F 29.98 in Calm     86 % 0.00 in
00:53 36.1 °F 32.3 °F 29.98 in Calm     86 % 0.00 in
00:58 35.9 °F 32.1 °F 29.97 in Calm     86 % 0.00 in
01:03 35.8 °F 32.0 °F 29.97 in Calm     86 % 0.00 in
01:09 35.6 °F 31.8 °F 29.97 in Calm     86 % 0.00 in
01:14 35.4 °F 31.6 °F 29.97 in Calm     86 % 0.00 in
01:19 35.2 °F 31.4 °F 29.97 in Calm     86 % 0.00 in
01:24 35.1 °F 31.3 °F 29.97 in Calm     86 % 0.00 in
01:29 35.1 °F 31.6 °F 29.97 in Calm     87 % 0.00 in
01:34 35.0 °F 31.8 °F 29.96 in Calm     88 % 0.00 in
01:39 35.0 °F 31.8 °F 29.96 in Calm     88 % 0.00 in
01:44 35.0 °F 32.1 °F 29.96 in Calm     89 % 0.00 in
01:49 35.0 °F 32.1 °F 29.96 in Calm     89 % 0.00 in
01:54 35.1 °F 32.5 °F 29.96 in Calm     90 % 0.00 in
01:59 35.1 °F 32.5 °F 29.96 in Calm     90 % 0.00 in
02:04 35.0 °F 32.4 °F 29.96 in Calm     90 % 0.00 in
02:09 35.0 °F 32.4 °F 29.96 in Calm     90 % 0.00 in
02:14 35.0 °F 32.4 °F 29.96 in Calm     90 % 0.00 in
02:19 34.9 °F 32.3 °F 29.95 in Calm     90 % 0.00 in
02:24 34.9 °F 32.3 °F 29.95 in Calm     90 % 0.00 in
02:29 34.8 °F 32.2 °F 29.95 in Calm     90 % 0.00 in
02:34 34.9 °F 32.5 °F 29.95 in Calm     91 % 0.00 in
02:39 34.9 °F 32.5 °F 29.95 in Calm     91 % 0.00 in
02:44 34.8 °F 32.2 °F 29.94 in Calm     90 % 0.00 in
02:49 34.8 °F 32.2 °F 29.94 in Calm     90 % 0.00 in
02:54 34.7 °F 32.1 °F 29.94 in Calm     90 % 0.00 in
02:59 34.7 °F 32.1 °F 29.94 in Calm     90 % 0.00 in
03:04 34.7 °F 32.3 °F 29.94 in Calm     91 % 0.00 in
03:09 34.7 °F 32.3 °F 29.94 in Calm     91 % 0.00 in
03:15 34.6 °F 32.2 °F 29.93 in Calm     91 % 0.00 in
03:20 34.5 °F 32.1 °F 29.94 in Calm     91 % 0.00 in
03:25 34.5 °F 32.1 °F 29.93 in Calm     91 % 0.00 in
03:30 34.4 °F 32.0 °F 29.93 in Calm     91 % 0.00 in
03:35 34.3 °F 31.9 °F 29.93 in Calm     91 % 0.00 in
03:40 34.2 °F 31.8 °F 29.93 in Calm     91 % 0.00 in
03:45 34.1 °F 31.7 °F 29.92 in Calm     91 % 0.00 in
03:50 34.1 °F 31.7 °F 29.92 in Calm     91 % 0.00 in
03:55 33.9 °F 31.6 °F 29.92 in Calm     91 % 0.00 in
04:00 33.7 °F 31.4 °F 29.92 in Calm     91 % 0.00 in
04:05 33.6 °F 31.3 °F 29.92 in Calm     91 % 0.00 in
04:10 33.6 °F 31.3 °F 29.92 in Calm     91 % 0.00 in
04:15 33.5 °F 31.2 °F 29.92 in Calm     91 % 0.00 in
04:20 33.4 °F 31.1 °F 29.92 in Calm     91 % 0.00 in
04:25 33.4 °F 31.1 °F 29.92 in Calm     91 % 0.00 in
04:30 33.4 °F 31.1 °F 29.91 in Calm     91 % 0.00 in
04:35 33.3 °F 31.0 °F 29.92 in Calm     91 % 0.00 in
04:38 33.3 °F 31.0 °F 29.92 in Calm     91 % 0.00 in
04:43 33.3 °F 31.2 °F 29.92 in Calm     92 % 0.00 in
04:48 33.4 °F 31.3 °F 29.92 in Calm     92 % 0.00 in
04:53 33.5 °F 31.4 °F 29.91 in Calm     92 % 0.00 in
04:58 33.6 °F 31.8 °F 29.91 in Calm     93 % 0.00 in
05:03 33.8 °F 32.0 °F 29.91 in Calm     93 % 0.00 in
05:08 33.9 °F 32.1 °F 29.91 in Calm     93 % 0.00 in
05:13 34.1 °F 32.3 °F 29.91 in Calm     93 % 0.00 in
05:18 34.3 °F 32.5 °F 29.91 in Calm     93 % 0.00 in
05:23 34.4 °F 32.6 °F 29.91 in Calm     93 % 0.00 in
05:28 34.5 °F 32.7 °F 29.91 in Calm     93 % 0.00 in
05:33 34.6 °F 33.1 °F 29.91 in Calm     94 % 0.00 in
05:38 34.8 °F 33.3 °F 29.91 in Calm     94 % 0.00 in
05:43 35.0 °F 33.5 °F 29.91 in Calm     94 % 0.00 in
05:48 35.3 °F 33.7 °F 29.91 in Calm     94 % 0.00 in
05:53 35.5 °F 33.9 °F 29.91 in Calm     94 % 0.00 in
05:58 35.6 °F 34.0 °F 29.91 in SSW 1.5 mph 2.0 mph 94 % 0.00 in
06:03 35.8 °F 34.3 °F 29.91 in NW 2.0 mph 3.0 mph 94 % 0.00 in
06:08 36.0 °F 34.8 °F 29.92 in Calm   1.0 mph 95 % 0.00 in
06:13 36.3 °F 35.0 °F 29.92 in Calm   1.2 mph 95 % 0.00 in
06:18 36.5 °F 35.2 °F 29.92 in Calm     95 % 0.00 in
06:23 36.6 °F 35.3 °F 29.92 in NNW 1.0 mph 2.0 mph 95 % 0.00 in
06:28 36.8 °F 35.5 °F 29.92 in Calm   2.0 mph 95 % 0.00 in
06:33 36.9 °F 35.6 °F 29.92 in ENE 0.8 mph 2.3 mph 95 % 0.00 in
06:38 37.1 °F 35.8 °F 29.92 in ENE 1.0 mph 5.0 mph 95 % 0.00 in
06:43 37.3 °F 36.0 °F 29.92 in NE 2.0 mph 6.0 mph 95 % 0.00 in
06:48 37.5 °F 36.2 °F 29.92 in ENE 3.0 mph 8.0 mph 95 % 0.00 in
06:53 37.5 °F 36.2 °F 29.91 in ENE 4.1 mph 8.1 mph 95 % 0.00 in
06:58 37.6 °F 36.3 °F 29.91 in ENE 2.8 mph 5.8 mph 95 % 0.00 in
07:03 37.7 °F 36.1 °F 29.91 in ENE 2.5 mph 8.1 mph 94 % 0.00 in
07:08 37.7 °F 36.4 °F 29.91 in ENE 3.4 mph 3.5 mph 95 % 0.00 in
07:13 37.7 °F 36.4 °F 29.91 in East 2.4 mph 4.6 mph 95 % 0.00 in
07:19 37.8 °F 36.5 °F 29.92 in East 3.2 mph 4.6 mph 95 % 0.01 in
07:24 37.8 °F 36.5 °F 29.92 in ENE 2.0 mph 3.5 mph 95 % 0.01 in
07:29 37.8 °F 36.5 °F 29.92 in ENE 3.2 mph 4.6 mph 95 % 0.01 in
07:34 37.9 °F 36.6 °F 29.92 in East 4.1 mph 6.0 mph 95 % 0.01 in
07:39 37.8 °F 36.5 °F 29.91 in East 5.4 mph 8.1 mph 95 % 0.02 in
07:44 37.7 °F 36.4 °F 29.91 in East 5.9 mph 9.0 mph 95 % 0.02 in
07:49 37.5 °F 35.9 °F 29.92 in East 2.8 mph 6.9 mph 94 % 0.02 in
07:54 37.5 °F 35.9 °F 29.92 in ENE 6.1 mph 9.0 mph 94 % 0.02 in
07:59 37.3 °F 35.7 °F 29.92 in ENE 7.7 mph 10.4 mph 94 % 0.02 in
08:04 37.2 °F 35.6 °F 29.91 in East 7.0 mph 8.1 mph 94 % 0.02 in
08:09 37.1 °F 35.5 °F 29.92 in ENE 6.4 mph 7.0 mph 94 % 0.02 in
08:14 37.0 °F 35.4 °F 29.92 in ENE 5.3 mph 6.9 mph 94 % 0.02 in
08:19 37.0 °F 35.4 °F 29.93 in ENE 3.6 mph 7.0 mph 94 % 0.01 in
08:24 37.0 °F 35.4 °F 29.92 in ENE 6.2 mph 8.1 mph 94 % 0.01 in
08:29 37.0 °F 35.7 °F 29.92 in ENE 3.8 mph 4.6 mph 95 % 0.01 in
08:34 37.0 °F 35.7 °F 29.92 in ENE 5.3 mph 9.2 mph 95 % 0.01 in
08:39 37.0 °F 35.7 °F 29.93 in ENE 3.8 mph 6.9 mph 95 % 0.00 in
08:44 37.0 °F 35.4 °F 29.92 in ENE 6.1 mph 11.5 mph 94 % 0.00 in
08:49 36.9 °F 35.3 °F 29.92 in ENE 6.5 mph 8.1 mph 94 % 0.00 in
08:54 36.9 °F 35.3 °F 29.92 in NE 5.9 mph 9.2 mph 94 % 0.00 in
08:59 36.9 °F 35.6 °F 29.93 in NE 5.4 mph 9.2 mph 95 % 0.01 in
09:05 37.0 °F 35.4 °F 29.93 in ENE 7.9 mph 10.4 mph 94 % 0.01 in
09:10 37.0 °F 35.4 °F 29.93 in ENE 6.8 mph 9.2 mph 94 % 0.02 in
09:15 36.9 °F 35.3 °F 29.93 in ENE 5.4 mph 9.2 mph 94 % 0.02 in
09:20 36.8 °F 35.2 °F 29.94 in ENE 5.9 mph 10.4 mph 94 % 0.02 in
09:25 36.7 °F 35.4 °F 29.94 in ENE 6.7 mph 9.0 mph 95 % 0.02 in
09:30 36.6 °F 35.0 °F 29.95 in NE 5.7 mph 9.2 mph 94 % 0.02 in
09:35 36.5 °F 34.9 °F 29.94 in ENE 5.4 mph 9.2 mph 94 % 0.02 in
09:40 36.5 °F 34.9 °F 29.94 in ENE 5.5 mph 8.1 mph 94 % 0.02 in
09:45 36.4 °F 34.8 °F 29.93 in ENE 8.1 mph 10.4 mph 94 % 0.02 in
09:50 36.4 °F 35.1 °F 29.93 in East 9.3 mph 11.5 mph 95 % 0.02 in
09:55 36.5 °F 35.2 °F 29.93 in East 8.1 mph 11.0 mph 95 % 0.02 in
10:00 36.5 °F 35.2 °F 29.93 in ENE 6.0 mph 11.0 mph 95 % 0.01 in
10:05 36.7 °F 35.4 °F 29.93 in East 9.0 mph 13.8 mph 95 % 0.01 in
10:10 36.7 °F 35.4 °F 29.93 in East 9.0 mph 13.8 mph 95 % 0.00 in
10:15 36.8 °F 35.5 °F 29.94 in NE 7.7 mph 12.7 mph 95 % 0.00 in
10:20 36.7 °F 35.4 °F 29.94 in ENE 8.1 mph 12.0 mph 95 % 0.00 in
10:25 36.7 °F 35.4 °F 29.93 in ENE 8.5 mph 11.5 mph 95 % 0.00 in
10:30 36.7 °F 35.4 °F 29.93 in East 7.8 mph 12.0 mph 95 % 0.00 in
10:35 36.6 °F 35.3 °F 29.93 in NE 6.9 mph 10.4 mph 95 % 0.00 in
10:40 36.7 °F 35.4 °F 29.93 in ENE 9.0 mph 11.5 mph 95 % 0.00 in
10:45 36.7 °F 35.4 °F 29.92 in ENE 8.3 mph 10.4 mph 95 % 0.00 in
10:50 36.6 °F 35.0 °F 29.92 in ENE 11.4 mph 15.0 mph 94 % 0.00 in
10:55 36.6 °F 35.0 °F 29.92 in NE 10.3 mph 15.0 mph 94 % 0.00 in
11:01 36.7 °F 35.1 °F 29.92 in ENE 7.7 mph 13.8 mph 94 % 0.00 in
11:06 36.7 °F 35.1 °F 29.92 in ENE 7.7 mph 12.7 mph 94 % 0.00 in
11:12 36.6 °F 35.0 °F 29.92 in ENE 9.4 mph 13.0 mph 94 % 0.00 in
11:17 36.5 °F 34.9 °F 29.92 in East 9.6 mph 15.0 mph 94 % 0.00 in
11:22 36.4 °F 34.6 °F 29.93 in NE 7.5 mph 12.7 mph 93 % 0.00 in
11:27 36.3 °F 34.5 °F 29.94 in NE 6.5 mph 11.5 mph 93 % 0.00 in
11:32 36.2 °F 34.4 °F 29.94 in NE 6.5 mph 8.1 mph 93 % 0.01 in
11:37 36.2 °F 34.4 °F 29.92 in NE 8.3 mph 10.4 mph 93 % 0.02 in
11:42 36.1 °F 34.5 °F 29.92 in ENE 9.3 mph 12.0 mph 94 % 0.02 in
11:47 36.0 °F 34.4 °F 29.91 in East 8.2 mph 11.5 mph 94 % 0.02 in
11:52 35.9 °F 34.3 °F 29.91 in East 9.5 mph 11.5 mph 94 % 0.03 in
11:57 35.9 °F 34.3 °F 29.90 in ENE 6.9 mph 8.1 mph 94 % 0.03 in
12:02 35.8 °F 34.2 °F 29.89 in ENE 9.2 mph 11.5 mph 94 % 0.04 in
12:07 35.6 °F 34.0 °F 29.88 in ENE 8.5 mph 11.0 mph 94 % 0.05 in
12:12 35.6 °F 34.0 °F 29.88 in ENE 10.4 mph 12.7 mph 94 % 0.06 in
12:16 35.6 °F 34.0 °F 29.88 in East 7.3 mph 11.5 mph 94 % 0.06 in
12:21 35.6 °F 34.3 °F 29.87 in ENE 9.1 mph 13.8 mph 95 % 0.07 in
12:26 35.6 °F 34.3 °F 29.86 in ENE 9.0 mph 12.7 mph 95 % 0.08 in
12:31 35.6 °F 34.3 °F 29.84 in ENE 9.1 mph 12.0 mph 95 % 0.08 in
12:36 35.6 °F 34.3 °F 29.86 in ENE 6.7 mph 11.5 mph 95 % 0.08 in
12:41 35.7 °F 34.4 °F 29.86 in East 9.5 mph 13.8 mph 95 % 0.08 in
12:46 35.7 °F 34.4 °F 29.86 in East 8.0 mph 11.5 mph 95 % 0.08 in
12:51 35.7 °F 34.4 °F 29.85 in ENE 8.4 mph 12.7 mph 95 % 0.07 in
12:56 35.8 °F 34.8 °F 29.85 in ENE 9.1 mph 13.8 mph 96 % 0.07 in
13:01 35.9 °F 34.9 °F 29.84 in ENE 9.1 mph 12.7 mph 96 % 0.06 in
13:06 36.0 °F 35.0 °F 29.84 in ENE 9.0 mph 12.7 mph 96 % 0.05 in
13:11 36.1 °F 35.1 °F 29.84 in ENE 6.9 mph 10.4 mph 96 % 0.04 in
13:16 36.2 °F 35.2 °F 29.84 in East 9.9 mph 12.7 mph 96 % 0.04 in
13:21 36.3 °F 35.3 °F 29.84 in ENE 9.2 mph 10.4 mph 96 % 0.03 in
13:26 36.4 °F 35.4 °F 29.83 in ENE 7.7 mph 11.5 mph 96 % 0.02 in
13:31 36.6 °F 35.6 °F 29.83 in ENE 9.2 mph 13.8 mph 96 % 0.01 in
13:36 36.6 °F 35.6 °F 29.83 in ENE 7.6 mph 12.0 mph 96 % 0.00 in
13:41 36.6 °F 35.6 °F 29.83 in NNE 6.7 mph 10.4 mph 96 % 0.00 in
13:46 36.5 °F 35.5 °F 29.83 in East 7.7 mph 12.7 mph 96 % 0.00 in
13:51 36.5 °F 35.5 °F 29.83 in ENE 7.7 mph 13.0 mph 96 % 0.00 in
13:56 36.3 °F 35.0 °F 29.82 in ENE 9.7 mph 13.0 mph 95 % 0.00 in
14:01 36.2 °F 34.9 °F 29.82 in ENE 10.2 mph 12.7 mph 95 % 0.00 in
14:06 36.2 °F 35.2 °F 29.83 in East 6.7 mph 10.4 mph 96 % 0.00 in
14:12 36.2 °F 35.2 °F 29.83 in ENE 7.9 mph 10.4 mph 96 % 0.00 in
14:17 36.3 °F 35.3 °F 29.83 in ENE 5.4 mph 11.5 mph 96 % 0.00 in
14:22 36.3 °F 35.3 °F 29.84 in NE 5.1 mph 8.1 mph 96 % 0.00 in
14:27 36.3 °F 35.3 °F 29.84 in ENE 4.4 mph 7.0 mph 96 % 0.00 in
14:32 36.3 °F 35.3 °F 29.84 in ENE 6.5 mph 9.2 mph 96 % 0.00 in
14:37 36.3 °F 35.3 °F 29.83 in NE 7.9 mph 10.4 mph 96 % 0.00 in
14:42 36.3 °F 35.3 °F 29.83 in ENE 6.5 mph 10.4 mph 96 % 0.00 in
14:47 36.4 °F 35.4 °F 29.82 in ENE 8.4 mph 11.5 mph 96 % 0.00 in
14:52 36.4 °F 35.4 °F 29.82 in ENE 5.6 mph 11.5 mph 96 % 0.00 in
14:57 36.4 °F 35.4 °F 29.82 in NE 5.4 mph 11.5 mph 96 % 0.00 in
15:02 36.5 °F 35.5 °F 29.82 in East 7.7 mph 10.4 mph 96 % 0.00 in
15:07 36.6 °F 35.6 °F 29.81 in ENE 6.2 mph 10.4 mph 96 % 0.00 in
15:12 36.6 °F 35.6 °F 29.82 in ENE 5.5 mph 9.2 mph 96 % 0.00 in
15:17 36.6 °F 35.6 °F 29.82 in NE 5.7 mph 9.2 mph 96 % 0.00 in
15:22 36.6 °F 35.6 °F 29.83 in ENE 5.6 mph 10.4 mph 96 % 0.00 in
15:27 36.6 °F 35.6 °F 29.83 in NE 5.6 mph 8.1 mph 96 % 0.00 in
15:32 36.6 °F 35.6 °F 29.83 in ENE 4.6 mph 6.9 mph 96 % 0.00 in
15:37 36.6 °F 35.6 °F 29.83 in ENE 5.6 mph 10.4 mph 96 % 0.00 in
15:42 36.6 °F 35.6 °F 29.83 in ENE 7.1 mph 9.2 mph 96 % 0.00 in
15:47 36.6 °F 35.6 °F 29.83 in ENE 6.1 mph 9.2 mph 96 % 0.00 in
15:52 36.6 °F 35.6 °F 29.82 in ENE 6.4 mph 8.1 mph 96 % 0.00 in
15:57 36.7 °F 35.7 °F 29.81 in ENE 6.7 mph 9.2 mph 96 % 0.00 in
16:02 36.7 °F 35.7 °F 29.81 in NE 5.6 mph 8.1 mph 96 % 0.00 in
16:07 36.8 °F 35.8 °F 29.80 in ENE 5.3 mph 11.5 mph 96 % 0.00 in
16:13 36.8 °F 35.8 °F 29.79 in East 5.5 mph 8.1 mph 96 % 0.00 in
16:18 36.9 °F 35.9 °F 29.79 in East 6.1 mph 8.1 mph 96 % 0.00 in
16:23 36.9 °F 35.9 °F 29.79 in ENE 7.0 mph 10.4 mph 96 % 0.00 in
16:28 36.9 °F 35.9 °F 29.79 in ENE 6.4 mph 9.2 mph 96 % 0.00 in
16:33 36.9 °F 35.9 °F 29.79 in ENE 5.6 mph 7.0 mph 96 % 0.00 in
16:38 36.9 °F 35.9 °F 29.79 in ENE 8.9 mph 11.5 mph 96 % 0.00 in
16:43 37.0 °F 36.0 °F 29.80 in ENE 6.0 mph 9.0 mph 96 % 0.00 in
16:48 37.0 °F 36.0 °F 29.80 in ENE 8.8 mph 11.5 mph 96 % 0.00 in
16:53 37.0 °F 36.0 °F 29.79 in ENE 5.9 mph 9.2 mph 96 % 0.00 in
16:58 37.0 °F 36.0 °F 29.80 in ENE 6.0 mph 10.4 mph 96 % 0.00 in
17:03 37.1 °F 36.3 °F 29.79 in ENE 7.4 mph 9.2 mph 97 % 0.00 in
17:08 37.1 °F 36.3 °F 29.79 in East 4.9 mph 8.1 mph 97 % 0.00 in
17:13 37.2 °F 36.4 °F 29.80 in ENE 6.0 mph 8.0 mph 97 % 0.00 in
17:14 37.2 °F 36.4 °F 29.80 in ENE 5.6 mph 9.0 mph 97 % 0.00 in
17:19 37.3 °F 36.3 °F 29.81 in ENE 6.0 mph 9.2 mph 96 % 0.00 in
17:24 37.3 °F 36.3 °F 29.81 in NE 4.7 mph 6.9 mph 96 % 0.00 in
17:29 37.4 °F 36.4 °F 29.81 in ENE 5.1 mph 8.1 mph 96 % 0.00 in
17:34 37.4 °F 36.4 °F 29.80 in ENE 5.2 mph 8.0 mph 96 % 0.00 in
17:38 37.4 °F 36.4 °F 29.78 in ENE 6.0 mph 8.0 mph 96 % 0.00 in
17:43 37.4 °F 36.4 °F 29.78 in ENE 5.3 mph 8.1 mph 96 % 0.00 in
17:48 37.5 °F 36.5 °F 29.78 in ENE 5.0 mph 9.0 mph 96 % 0.00 in
17:53 37.5 °F 36.5 °F 29.77 in ENE 5.0 mph 10.0 mph 96 % 0.00 in
17:58 37.4 °F 36.4 °F 29.77 in ENE 5.3 mph 8.1 mph 96 % 0.00 in
18:03 37.3 °F 36.3 °F 29.77 in ENE 5.3 mph 10.4 mph 96 % 0.00 in
18:08 37.2 °F 36.4 °F 29.77 in ENE 8.6 mph 11.5 mph 97 % 0.00 in
18:14 37.2 °F 36.4 °F 29.77 in ENE 6.5 mph 9.2 mph 97 % 0.00 in
18:19 37.2 °F 36.4 °F 29.77 in ENE 6.9 mph 11.5 mph 97 % 0.00 in
18:24 37.2 °F 36.4 °F 29.77 in ENE 5.2 mph 9.2 mph 97 % 0.00 in
18:29 37.3 °F 36.5 °F 29.77 in ENE 7.0 mph 9.2 mph 97 % 0.00 in
18:34 37.4 °F 36.6 °F 29.76 in ENE 6.1 mph 8.1 mph 97 % 0.00 in
18:39 37.4 °F 36.6 °F 29.76 in East 9.0 mph 12.7 mph 97 % 0.00 in
18:44 37.3 °F 36.5 °F 29.76 in ENE 9.4 mph 11.5 mph 97 % 0.00 in
18:49 37.2 °F 36.4 °F 29.76 in ENE 6.3 mph 9.0 mph 97 % 0.00 in
18:54 37.1 °F 36.3 °F 29.75 in ENE 6.4 mph 10.4 mph 97 % 0.00 in
18:59 37.1 °F 36.3 °F 29.75 in ENE 7.4 mph 10.4 mph 97 % 0.00 in
19:04 37.1 °F 36.1 °F 29.75 in ENE 7.0 mph 9.2 mph 96 % 0.00 in
19:09 37.1 °F 36.3 °F 29.75 in East 7.6 mph 9.2 mph 97 % 0.00 in
19:14 37.1 °F 36.3 °F 29.76 in ENE 8.8 mph 11.5 mph 97 % 0.00 in
19:19 37.1 °F 36.3 °F 29.75 in ENE 4.7 mph 11.5 mph 97 % 0.00 in
19:24 37.1 °F 36.3 °F 29.75 in ENE 6.9 mph 8.0 mph 97 % 0.00 in
19:29 37.1 °F 36.3 °F 29.75 in NE 7.1 mph 9.2 mph 97 % 0.00 in
19:34 37.1 °F 36.3 °F 29.75 in ENE 6.7 mph 9.2 mph 97 % 0.00 in
19:39 37.1 °F 36.3 °F 29.74 in ENE 5.2 mph 8.1 mph 97 % 0.00 in
19:44 37.2 °F 36.4 °F 29.74 in ENE 7.5 mph 10.4 mph 97 % 0.00 in
19:49 37.3 °F 36.5 °F 29.73 in East 7.0 mph 9.2 mph 97 % 0.00 in
19:54 37.4 °F 36.6 °F 29.73 in East 7.2 mph 8.1 mph 97 % 0.00 in
19:59 37.5 °F 36.7 °F 29.73 in ENE 7.4 mph 8.1 mph 97 % 0.00 in
20:04 37.5 °F 36.7 °F 29.72 in ENE 7.1 mph 10.4 mph 97 % 0.00 in
20:09 37.5 °F 36.7 °F 29.73 in ENE 5.7 mph 9.0 mph 97 % 0.00 in
20:14 37.6 °F 36.8 °F 29.72 in East 5.7 mph 8.1 mph 97 % 0.00 in
20:19 37.7 °F 36.9 °F 29.72 in ENE 5.1 mph 8.1 mph 97 % 0.00 in
20:25 37.7 °F 36.9 °F 29.71 in East 7.0 mph 8.1 mph 97 % 0.00 in
20:30 37.7 °F 36.9 °F 29.71 in East 5.8 mph 8.1 mph 97 % 0.00 in
20:35 37.7 °F 36.9 °F 29.71 in East 4.9 mph 6.9 mph 97 % 0.00 in
20:40 37.8 °F 37.0 °F 29.70 in ENE 6.4 mph 8.1 mph 97 % 0.00 in
20:45 37.8 °F 37.0 °F 29.70 in East 7.0 mph 9.2 mph 97 % 0.00 in
20:50 37.9 °F 37.1 °F 29.69 in East 6.8 mph 9.2 mph 97 % 0.00 in
20:55 37.9 °F 37.1 °F 29.69 in East 5.7 mph 6.9 mph 97 % 0.00 in
21:00 38.0 °F 37.2 °F 29.69 in ENE 5.7 mph 9.0 mph 97 % 0.00 in
21:05 38.0 °F 37.2 °F 29.69 in ENE 5.1 mph 8.1 mph 97 % 0.00 in
21:10 38.0 °F 37.2 °F 29.68 in ENE 6.8 mph 10.4 mph 97 % 0.00 in
21:16 38.1 °F 37.3 °F 29.69 in ENE 5.6 mph 8.1 mph 97 % 0.00 in
21:21 38.1 °F 37.3 °F 29.68 in ENE 5.8 mph 8.1 mph 97 % 0.00 in
21:26 38.2 °F 37.4 °F 29.68 in East 5.5 mph 6.9 mph 97 % 0.00 in
21:31 38.2 °F 37.4 °F 29.68 in East 5.6 mph 10.4 mph 97 % 0.00 in
21:36 38.2 °F 37.4 °F 29.68 in East 6.1 mph 7.0 mph 97 % 0.00 in
21:41 38.2 °F 37.4 °F 29.68 in ENE 4.0 mph 7.0 mph 97 % 0.00 in
21:46 38.3 °F 37.5 °F 29.67 in ENE 4.3 mph 8.1 mph 97 % 0.00 in
21:51 38.3 °F 37.5 °F 29.66 in East 6.4 mph 9.2 mph 97 % 0.00 in
21:56 38.3 °F 37.5 °F 29.66 in East 5.6 mph 8.1 mph 97 % 0.00 in
22:01 38.3 °F 37.5 °F 29.66 in East 6.1 mph 8.1 mph 97 % 0.00 in
22:06 38.4 °F 37.6 °F 29.66 in East 6.7 mph 8.1 mph 97 % 0.00 in
22:11 38.5 °F 37.7 °F 29.65 in East 5.4 mph 6.9 mph 97 % 0.00 in
22:16 38.5 °F 37.7 °F 29.65 in East 5.1 mph 5.8 mph 97 % 0.00 in
22:21 38.5 °F 37.7 °F 29.65 in East 3.1 mph 5.8 mph 97 % 0.00 in
22:26 38.5 °F 37.7 °F 29.65 in East 2.9 mph 5.0 mph 97 % 0.00 in
22:31 38.6 °F 37.8 °F 29.64 in East 4.8 mph 5.0 mph 97 % 0.00 in
22:36 38.6 °F 37.8 °F 29.64 in East 4.2 mph 5.8 mph 97 % 0.00 in
22:37 38.6 °F 37.8 °F 29.64 in East 3.8 mph 4.6 mph 97 % 0.00 in
22:42 38.7 °F 37.9 °F 29.63 in East 3.1 mph 5.8 mph 97 % 0.00 in
22:47 38.7 °F 38.2 °F 29.63 in East 3.7 mph 5.0 mph 98 % 0.00 in
22:52 38.7 °F 38.2 °F 29.62 in East 3.9 mph 4.6 mph 98 % 0.00 in
22:57 38.8 °F 38.3 °F 29.62 in East 2.4 mph 5.0 mph 98 % 0.00 in
23:02 38.8 °F 38.3 °F 29.62 in East 1.4 mph 3.5 mph 98 % 0.00 in
23:07 38.8 °F 38.3 °F 29.62 in ENE 1.9 mph 3.5 mph 98 % 0.00 in
23:12 38.8 °F 38.3 °F 29.62 in ENE 2.1 mph 3.5 mph 98 % 0.00 in
23:17 38.8 °F 38.3 °F 29.62 in ENE 3.0 mph 3.5 mph 98 % 0.00 in
23:22 38.8 °F 38.3 °F 29.61 in ENE 2.4 mph 3.5 mph 98 % 0.00 in
23:27 38.8 °F 38.3 °F 29.61 in ENE 1.6 mph 3.5 mph 98 % 0.00 in
23:28 38.8 °F 38.3 °F 29.61 in ENE 1.6 mph 3.5 mph 98 % 0.00 in
23:33 38.8 °F 38.3 °F 29.60 in ENE 3.3 mph 4.0 mph 98 % 0.00 in
23:38 38.8 °F 38.3 °F 29.60 in East 1.9 mph 3.5 mph 98 % 0.00 in
23:43 38.9 °F 38.4 °F 29.59 in ENE 1.3 mph 2.3 mph 98 % 0.00 in
23:48 38.9 °F 38.4 °F 29.59 in East 2.0 mph 5.0 mph 98 % 0.00 in
23:53 38.9 °F 38.4 °F 29.59 in ENE 3.2 mph 4.0 mph 98 % 0.00 in
23:58 38.9 °F 38.4 °F 29.59 in NE 4.1 mph 4.6 mph 98 % 0.00 in
Crab Meadow Weather
Compliments of Weather Underground - 3 mb

Script developed by  Jim McMurry - jmcmurry@mwt.net Adapted for the template by  Wim van der Kuil - Leuven-Template.eu

Weather Terms: Blizzard Warning - Sustained winds or frequent gusts of 35 mph or greater, considerable falling and/or blowing snow reducing visibility frequently to 1/4 mile or less for a period of three hours or more. There are no temperature criteria in the definition of a blizzard but freezing temperatures and 35 mph winds will create sub-zero wind chills.